Flag for U.S.A. Weather past 2 weeks in Urbana, Illinois, U.S.A.

Now
56 °F

Fog.


Feels Like: 55 °F
Forecast: 51 / 71 °F
Wind: 6 mph from West

Location: University Of Illinois-Willard Airport


UV Index: 5 (Moderate)

Visibility: 4 mi


Pressure: 29.60 "Hg

Humidity: 97%

Dew point: 55 °F

Location of UrbanaLocation

Historic Weather in Urbana

°F

Urbana temperature yesterday

Maximum temperature yesterday: 73 °F (at 2:53 PM)
Minimum temperature yesterday: 47 °F (at 4:53 AM)
Average temperature yesterday: 60 °F

Past Weeks' High & Low Weather Summary

 TemperatureHumidityPressure
High79 °F (Apr 12, 1:53 PM)96% (Apr 14, 8:53 PM)30.33 "Hg (Apr 14, 8:53 PM)
Low29 °F (Apr 15, 4:53 AM)16% (Apr 11, 4:53 PM)29.43 "Hg (Apr 14, 1:53 AM)
Average55 °F59%30.02 "Hg
* Reported Apr 10 12:53 AM — Apr 25 12:53 AM, Urbana, Weather by CustomWeather, © 2014

Note: Actual official high and low records may vary slightly from our data, if they occured in-between our weather recording intervals... More about our weather records

Advertising

Historic Weather Conditions — Data for Previous 24 hours

 ConditionsComfort  
Time TempWeatherWind HumidityBarometerVisibility
12:53 AM
Apr 25
57 °FMostly cloudy.6 mph93%29.61 "Hg7 mi
11:53 PM
Apr 24
57 °FLight rain. Fog.7 mph90%29.62 "Hg6 mi
10:53 PM59 °FLight rain. Overcast.13 mph81%29.65 "Hg9 mi
10:00 PM63 °FLight rain. Overcast.12 mph56%29.67 "Hg10 mi
8:53 PM60 °FPassing clouds.13 mph67%29.64 "Hg10 mi
7:53 PM63 °FRain. Mostly cloudy.12 mph58%29.66 "Hg7 mi
6:53 PM67 °FPartly sunny.15 mph42%29.67 "Hg10 mi
5:53 PM71 °FScattered clouds.20 mph30%29.68 "Hg10 mi
4:53 PM72 °FSunny.23 mph28%29.70 "Hg10 mi
3:53 PM73 °FPassing clouds.22 mph27%29.72 "Hg10 mi
2:53 PM73 °FSunny.18 mph27%29.78 "Hg10 mi
1:53 PM71 °FSunny.20 mph27%29.83 "Hg10 mi
12:53 PM69 °FPassing clouds.21 mph29%29.85 "Hg10 mi
11:53 AM66 °FScattered clouds.22 mph32%29.89 "Hg10 mi
10:53 AM66 °FSunny.23 mph31%29.90 "Hg10 mi
9:53 AM61 °FSunny.22 mph38%29.93 "Hg10 mi
8:53 AM58 °FSunny.28 mph44%29.96 "Hg10 mi
7:53 AM52 °FSunny.16 mph57%29.99 "Hg10 mi
6:53 AM49 °FPassing clouds.13 mph64%30.00 "Hg10 mi
5:53 AM48 °FPassing clouds.9 mph66%30.00 "Hg10 mi
4:53 AM47 °FPassing clouds.9 mph74%29.99 "Hg10 mi
3:53 AM50 °FOvercast.10 mph66%29.97 "Hg10 mi
2:53 AM50 °FOvercast.10 mph61%29.97 "Hg10 mi
Weather by CustomWeather, © 2014

See weather overview